Location: Lane
(33.5226°N, 79.8788°W)
Time: 14:35:16
(UTC+00:00)

deb Explorer IX - All Passes

Search period start: 03 October 2022 00:00
Search period end: 13 October 2022 00:00
Orbit: 531 x 1064 km, 38.8° (Epoch: 02 October)

Date Brightness Start Highest point End Pass type
(mag) Time Alt. Az. Time Alt. Az. Time Alt. Az.
03 Oct - 10:10:30 10° SSW 10:14:39 36° SE 10:19:23 10° E visible
03 Oct - 11:55:57 10° W 12:00:50 70° NNW 12:06:38 10° ENE daylight
03 Oct - 13:42:33 10° WNW 13:47:52 51° N 13:54:04 10° ENE daylight
03 Oct - 15:28:59 10° WNW 15:35:01 75° NNE 15:41:52 10° ESE daylight
03 Oct - 17:15:35 10° WNW 17:21:43 45° SSW 17:28:22 10° SE daylight
03 Oct - 19:05:19 10° WSW 19:07:50 12° SW 19:10:21 10° SSW daylight
04 Oct - 09:40:18 10° SSW 09:44:12 32° SE 09:48:37 10° E visible
04 Oct - 11:25:34 10° WSW 11:30:18 73° NNW 11:35:52 10° ENE daylight
04 Oct - 13:12:08 10° WNW 13:17:15 49° N 13:23:13 10° ENE daylight
04 Oct - 14:58:31 10° WNW 15:04:20 72° NNE 15:11:01 10° ESE daylight
04 Oct - 16:45:00 10° WNW 16:51:02 48° SSW 16:57:41 10° SE daylight
04 Oct - 18:34:11 10° WSW 18:37:12 13° SW 18:40:16 10° SSW daylight
05 Oct - 09:10:05 10° SSW 09:13:46 28° SE 09:17:51 10° E visible
05 Oct - 10:55:11 10° WSW 10:59:45 76° NNW 11:05:06 10° ENE daylight
05 Oct - 12:41:42 10° WNW 12:46:37 48° N 12:52:22 10° ENE daylight
05 Oct - 14:28:03 10° WNW 14:33:40 69° NNE 14:40:09 10° E daylight
05 Oct - 16:14:26 10° WNW 16:20:21 50° SSW 16:26:57 10° SE daylight
05 Oct - 18:03:10 10° WSW 18:06:33 14° SW 18:10:01 10° S daylight
06 Oct - 08:39:52 10° SSW 08:43:19 25° SE 08:47:03 10° E visible
06 Oct - 10:24:48 10° WSW 10:29:13 80° NNW 10:34:21 10° ENE visible
06 Oct - 12:11:17 10° WNW 12:15:59 47° N 12:21:31 10° ENE daylight
06 Oct - 13:57:36 10° WNW 14:02:59 65° NNE 14:09:17 10° E daylight
06 Oct - 15:43:54 10° WNW 15:49:40 53° SSW 15:56:12 10° SE daylight
06 Oct - 17:32:16 10° WSW 17:35:53 15° SW 17:39:39 10° S daylight
07 Oct - 08:09:40 10° SSW 08:12:51 22° SE 08:16:16 10° E visible
07 Oct - 09:54:24 10° WSW 09:58:41 84° NNW 10:03:37 10° ENE visible
07 Oct - 11:40:50 10° WNW 11:45:23 46° N 11:50:40 10° ENE daylight
07 Oct - 13:27:09 10° WNW 13:32:19 62° NNE 13:38:23 10° E daylight
07 Oct - 15:13:22 10° WNW 15:18:58 56° SSW 15:25:24 10° SE daylight
07 Oct - 17:01:25 10° WSW 17:05:12 16° SW 17:09:12 10° S daylight
08 Oct - 07:39:28 10° S 07:42:23 19° SE 07:45:28 10° E visible
08 Oct - 09:23:58 10° WSW 09:28:09 89° NW 09:32:53 10° ENE visible
08 Oct - 11:10:23 10° WNW 11:14:46 46° N 11:19:49 10° ENE daylight
08 Oct - 12:56:42 10° WNW 13:01:39 59° NNE 13:07:29 10° E daylight
08 Oct - 14:42:50 10° WNW 14:48:16 59° SSW 14:54:35 10° SE daylight
08 Oct - 16:30:38 10° WSW 16:34:31 17° SW 16:38:41 10° S daylight
09 Oct - 07:09:15 10° S 07:11:54 17° SE 07:14:38 10° E night (unlit)
09 Oct - 08:53:31 10° WSW 08:57:37 85° SSE 09:02:10 10° ENE visible
09 Oct - 10:39:55 10° WNW 10:44:09 45° N 10:49:00 10° ENE visible
09 Oct - 12:26:15 10° WNW 12:31:00 56° NNE 12:36:34 10° E daylight
09 Oct - 14:12:19 10° WNW 14:17:35 62° SSW 14:23:44 10° SE daylight
09 Oct - 15:59:53 10° W 16:03:50 18° SW 16:08:06 10° S daylight
10 Oct - 06:39:04 10° S 06:41:24 15° SE 06:43:47 10° ESE night (unlit)
10 Oct - 08:23:03 10° WSW 08:27:05 78° SSE 08:31:28 10° ENE visible
10 Oct - 10:09:26 10° W 10:13:33 45° N 10:18:11 10° ENE visible
10 Oct - 11:55:46 10° WNW 12:00:20 53° NNE 12:05:40 10° E daylight
10 Oct - 13:41:48 10° WNW 13:46:54 66° SSW 13:52:52 10° SE daylight
10 Oct - 15:29:09 10° W 15:33:08 19° SW 15:37:28 10° S daylight
11 Oct - 06:08:53 10° S 06:10:53 13° SE 06:12:53 10° ESE night (unlit)
11 Oct - 07:52:33 10° WSW 07:56:33 72° SSE 08:00:47 10° ENE visible
11 Oct - 09:38:55 10° W 09:42:55 45° N 09:47:23 10° ENE visible
11 Oct - 11:25:18 10° WNW 11:29:41 50° N 11:34:45 10° E daylight
11 Oct - 13:11:18 10° WNW 13:16:12 70° SSW 13:22:00 10° ESE daylight
11 Oct - 14:58:28 10° W 15:02:26 20° SW 15:06:48 10° S daylight
12 Oct - 05:38:46 10° SSE 05:40:21 12° SE 05:41:55 10° ESE night (unlit)
12 Oct - 07:22:02 10° SW 07:25:59 65° SSE 07:30:06 10° ENE night (unlit)
12 Oct - 09:08:22 10° W 09:12:18 45° N 09:16:37 10° ENE visible
12 Oct - 10:54:48 10° WNW 10:59:02 47° N 11:03:52 10° E visible
12 Oct - 12:40:47 10° WNW 12:45:32 74° SSW 12:51:07 10° ESE daylight
12 Oct - 14:27:47 10° W 14:31:43 21° SW 14:36:06 10° SSE daylight
